Regional Weather Roundup
Issued by NWS

Home | Current Version | Previous Version | Graphics & Text | Print | Product List | Glossary On
Versions: 1 2 3 4 5 6 7 8 9 10 11 12 13 14 15 16 17 18 19 20 21 22 23 24 25 26 27 28 29 30 31 32 33 34 35 36 37 38 39 40 41 42 43 44 45 46 47 48 49
000
ASUS45 KCYS 051210
RWRWY

WYOMING REGIONAL WEATHER ROUNDUP
NATIONAL WEATHER SERVICE CHEYENNE WY
500 AM MST FRI FEB 05 2016

NOTE:  "FAIR" INDICATES FEW OR NO CLOUDS BELOW 12,000 FEET
WITH NO SIGNIFICANT WEATHER AND/OR OBSTRUCTIONS TO VISIBILITY.

WYZ001-051300-
YELLOWSTONE NATIONAL PARK

CITY           SKY/WX    TMP DP  RH WIND       PRES   REMARKS
LK YELLOWSTONE   N/A      7   3  84 CALM      30.34S
6HR MIN TEMP:   4; 6HR MAX TEMP:   8;

W YELLOWSTONE  NOT AVBL

$$
WYZ002>013-054>058-071-098>099-051300-
NORTHERN WYOMING

CITY           SKY/WX    TMP DP  RH WIND       PRES   REMARKS
JACKSON        FAIR       3   1  92 N10       30.39R WCI -12
CODY           FAIR      30   9  40 W12       30.25S WCI  21
GREYBULL       FAIR      16  12  84 SE3       30.32R
6HR MIN TEMP:  14; 6HR MAX TEMP:  23;

WORLAND        MOCLDY    14   8  77 S7        30.31R WCI   4
6HR MIN TEMP:  11; 6HR MAX TEMP:  18;

SHERIDAN       CLOUDY    34  16  47 NW14      30.21F WCI  24
6HR MIN TEMP:  28; 6HR MAX TEMP:  34; 6HR PCP:  0.01;

BUFFALO        MOCLDY    29  14  53 NW12      30.20R WCI  19
6HR MIN TEMP:  26; 6HR MAX TEMP:  32; 6HR PCP: TRACE;

GILLETTE       CLOUDY    28  22  78 NW12      30.20R WCI  18
6HR MIN TEMP:  27; 6HR MAX TEMP:  30; 6HR PCP: TRACE;

HULETT         FLURRIES  32  27  80 NW12G24   30.17R WCI  23
NEWCASTLE      LGT SNOW  28  25  86 NW18G25   30.17R WCI  16

$$
WYZ014>020-022>026-101>103-051300-
CENTRAL WYOMING

CITY           SKY/WX    TMP DP  RH WIND       PRES   REMARKS
BIG PINEY      FAIR      14   7  73 N14       30.32S WCI  -1
6HR MIN TEMP:   4; 6HR MAX TEMP:  16;

PINEDALE       FAIR      10   5  79 NW14      30.32R WCI  -5
DUBOIS         FAIR      19   9  63 W26       30.27R WCI   1
LANDER         FAIR      12  -1  56 S3        30.27R
6HR MIN TEMP:  11; 6HR MAX TEMP:  20;

RIVERTON       FAIR      13   3  64 W3        30.28R
6HR MIN TEMP:  12; 6HR MAX TEMP:  25;

CASPER         FAIR      19   7  59 SW16      30.25R WCI   4
6HR MIN TEMP:  16; 6HR MAX TEMP:  23;

DOUGLAS        FAIR      21  10  62 NW9       30.24R WCI  11
6HR MIN TEMP:  19; 6HR MAX TEMP:  24;


$$
WYZ021-027>030-104>119-051300-
SOUTHERN WYOMING

CITY           SKY/WX    TMP DP  RH WIND       PRES   REMARKS
EVANSTON       CLOUDY    18  14  84 SW8       30.40R WCI   8
6HR MIN TEMP:  15; 6HR MAX TEMP:  20; 6HR PCP: TRACE;

FORT BRIDGER   CLOUDY    19  18  93 W14       30.41R WCI   6
ROCK SPRINGS   FAIR      13   9  84 SW16      30.33R WCI  -3
6HR MIN TEMP:  12; 6HR MAX TEMP:  17;

DIXON          FLURRIES  13  10  87 NW6       30.37R WCI   4
RAWLINS        FAIR      11   5  77 W21       30.28R WCI  -8
6HR MIN TEMP:  11; 6HR MAX TEMP:  18;

SARATOGA       PTSUNNY   10   5  79 W8        30.29R WCI  -1
LARAMIE        FAIR      11   2  67 NW6       30.21R WCI   1
6HR MIN TEMP:  11; 6HR MAX TEMP:  17;

CHEYENNE       FAIR      21   8  57 NW17G26   30.20R WCI   7
6HR MIN TEMP:  21; 6HR MAX TEMP:  24;

TORRINGTON     FAIR      19  12  74 NW8       30.22S WCI   9
6HR MIN TEMP:  19; 6HR MAX TEMP:  29;

PINE BLUFFS    FAIR      23  12  63 NW16      30.22R WCI  10

$$



USA.gov is the U.S. government's official web portal to all federal, state and local government web resources and services.